Find Praetorian SDA-604

NORAD ID: 65567 Int'l Des: 2025-203 Owner: SDA Country: US operational
LEOCIRCULARPOLAR

リアルタイム位置

3D地球を読み込み中...

Praetorian SDA-604について

説明を読み込み中...

次回通過

Passes for default location (London). Set your location on the main map for personalized predictions.

高度履歴

Loading altitude history...

軌道要素

1 65567U 25203C 26105.85468876 .00000032 00000-0 18391-4 0 9998
2 65567 81.3041 68.6911 0006130 21.3178 338.8232 13.83038769 30067
Epoch: Apr 15, 2026 • Age: 9 hours

現在のステータス

高度 960.8 km
速度 7.37 km/s
衛星直下点 38.63°N, 51.14°W
打ち上げ日 Sep 10, 2025
運用期間 0.5 years
タイプ other

技術仕様

分類 Payload
質量 300.00 kg
乾燥質量 300.00 kg
総質量 300.00 kg
長さ 1.00 m
直径 0.60 m
スパン 2.00 m
形状 Box + panels
製造者 YORKSS
バスタイプ S-Class
フェーズステータス In Orbit
所有者/国 SDA/US

Most Searched